| time (UTC) | temp F | wind direction | speed MPH | gust MPH | rain 1hr in | rain 24hr in | rain mn in | humidity % | barometer mb |
| 20260504213603 | 61 | 33 | 1.0 | 2.0 | 0.00 | 0.00 | 0.00 | 92 | 806.6 |
| 20260504213105 | 61 | 33 | 1.0 | 2.0 | 0.00 | 0.00 | 0.00 | 91 | 806.6 |
| 20260504212603 | 61 | 47 | 1.0 | 2.0 | 0.00 | 0.00 | 0.00 | 91 | 806.6 |
| 20260504212104 | 61 | 47 | 1.0 | 2.0 | 0.00 | 0.00 | 0.00 | 92 | 806.6 |
| 20260504211605 | 61 | 47 | 1.0 | 2.0 | 0.00 | 0.00 | 0.00 | 92 | 806.7 |
| 20260504211106 | 61 | 47 | 1.0 | 2.0 | 0.00 | 0.00 | 0.00 | 91 | 806.7 |
| 20260504210603 | 61 | 47 | 1.0 | 2.0 | 0.00 | 0.00 | 0.00 | 91 | 806.7 |
| 20260504210111 | 61 | 47 | 1.0 | 2.0 | 0.00 | 0.00 | 0.00 | 92 | 806.7 |
| 20260504205603 | 61 | 47 | 1.0 | 2.0 | 0.00 | 0.00 | 0.00 | 92 | 806.7 |
| 20260504205106 | 61 | 47 | 1.0 | 2.0 | 0.00 | 0.00 | 0.00 | 93 | 806.7 |
| 20260504204605 | 60 | 47 | 1.0 | 2.0 | 0.00 | 0.00 | 0.00 | 92 | 806.7 |
| 20260504204104 | 60 | 47 | 1.0 | 2.0 | 0.00 | 0.00 | 0.00 | 92 | 806.6 |
| 20260504203603 | 61 | 47 | 1.0 | 2.0 | 0.00 | 0.00 | 0.00 | 92 | 806.6 |
| 20260504203106 | 60 | 47 | 1.0 | 2.0 | 0.00 | 0.00 | 0.00 | 92 | 806.7 |
| 20260504202603 | 61 | 46 | 1.0 | 2.0 | 0.00 | 0.00 | 0.00 | 92 | 806.7 |
| 20260504202106 | 61 | 46 | 1.0 | 2.0 | 0.00 | 0.00 | 0.00 | 92 | 806.7 |
| 20260504201603 | 61 | 46 | 1.0 | 2.0 | 0.00 | 0.00 | 0.00 | 93 | 806.8 |
| 20260504201104 | 61 | 46 | 1.0 | 2.0 | 0.00 | 0.00 | 0.00 | 92 | 806.8 |
| 20260504200603 | 61 | 46 | 1.0 | 2.0 | 0.00 | 0.00 | 0.00 | 92 | 806.8 |
| 20260504200107 | 61 | 46 | 1.0 | 2.0 | 0.00 | 0.00 | 0.00 | 93 | 806.8 |
| 20260504195603 | 61 | 46 | 1.0 | 2.0 | 0.00 | 0.00 | 0.00 | 93 | 806.9 |
| 20260504195104 | 61 | 46 | 1.0 | 2.0 | 0.00 | 0.00 | 0.00 | 92 | 806.9 |
| 20260504194603 | 61 | 46 | 1.0 | 2.0 | 0.00 | 0.00 | 0.00 | 92 | 806.9 |
| 20260504194104 | 61 | 46 | 1.0 | 2.0 | 0.00 | 0.00 | 0.00 | 92 | 806.9 |
| 20260504193602 | 61 | 46 | 1.0 | 2.0 | 0.00 | 0.00 | 0.00 | 92 | 806.9 |
| 20260504193108 | 61 | 46 | 1.0 | 2.0 | 0.00 | 0.00 | 0.00 | 92 | 806.9 |
| 20260504192602 | 61 | 44 | 1.0 | 2.0 | 0.00 | 0.00 | 0.00 | 92 | 806.9 |
| 20260504192104 | 62 | 44 | 1.0 | 2.0 | 0.00 | 0.00 | 0.00 | 92 | 806.9 |
| 20260504191603 | 62 | 44 | 1.0 | 2.0 | 0.00 | 0.00 | 0.00 | 91 | 807.0 |
| 20260504191102 | 62 | 44 | 1.0 | 2.0 | 0.00 | 0.00 | 0.00 | 91 | 807.0 |
| 20260504190601 | 62 | 44 | 1.0 | 2.0 | 0.00 | 0.00 | 0.00 | 93 | 807.1 |
| 20260504190101 | 62 | 44 | 1.0 | 2.0 | 0.00 | 0.00 | 0.00 | 93 | 807.0 |
| 20260504185601 | 62 | 44 | 1.0 | 2.0 | 0.00 | 0.00 | 0.00 | 92 | 807.0 |
| 20260504185101 | 62 | 44 | 1.0 | 2.0 | 0.00 | 0.00 | 0.00 | 92 | 807.0 |
| 20260504184601 | 62 | 44 | 1.0 | 2.0 | 0.00 | 0.00 | 0.00 | 92 | 807.1 |
| 20260504184102 | 62 | 44 | 1.0 | 2.0 | 0.00 | 0.00 | 0.00 | 92 | 807.0 |
| 20260504183602 | 62 | 44 | 1.0 | 2.0 | 0.00 | 0.00 | 0.00 | 93 | 807.0 |
| 20260504183101 | 62 | 44 | 1.0 | 2.0 | 0.00 | 0.00 | 0.00 | 92 | 807.1 |
| 20260504182602 | 62 | 18 | 1.0 | 2.0 | 0.00 | 0.00 | 0.00 | 92 | 807.2 |
| 20260504182101 | 62 | 18 | 1.0 | 2.0 | 0.00 | 0.00 | 0.00 | 91 | 807.3 |
| 20260504181601 | 62 | 18 | 1.0 | 2.0 | 0.00 | 0.00 | 0.00 | 92 | 807.3 |
| 20260504181102 | 62 | 18 | 1.0 | 2.0 | 0.00 | 0.00 | 0.00 | 92 | 807.4 |
| 20260504180601 | 63 | 18 | 1.0 | 2.0 | 0.00 | 0.00 | 0.00 | 92 | 807.4 |
| 20260504175601 | 63 | 18 | 1.0 | 2.0 | 0.00 | 0.00 | 0.00 | 92 | 807.5 |
| 20260504175101 | 63 | 18 | 1.0 | 2.0 | 0.00 | 0.00 | 0.00 | 92 | 807.5 |
| 20260504174601 | 63 | 346 | 2.0 | 2.0 | 0.00 | 0.00 | 0.00 | 93 | 807.5 |
| 20260504174102 | 63 | 346 | 2.0 | 2.0 | 0.00 | 0.00 | 0.00 | 92 | 807.6 |
| 20260504173601 | 63 | 346 | 2.0 | 2.0 | 0.00 | 0.00 | 0.00 | 92 | 807.7 |
| 20260504173102 | 63 | 12 | 1.0 | 2.0 | 0.00 | 0.00 | 0.00 | 92 | 807.8 |
| 20260504172601 | 63 | 12 | 1.0 | 2.0 | 0.00 | 0.00 | 0.00 | 92 | 807.9 |
| 20260504172102 | 63 | 12 | 1.0 | 2.0 | 0.00 | 0.00 | 0.00 | 92 | 808.0 |
| 20260504171601 | 63 | 12 | 1.0 | 2.0 | 0.00 | 0.00 | 0.00 | 92 | 808.1 |
| 20260504171101 | 63 | 12 | 1.0 | 2.0 | 0.00 | 0.00 | 0.00 | 92 | 808.2 |
| 20260504170601 | 63 | 12 | 1.0 | 2.0 | 0.00 | 0.00 | 0.00 | 92 | 808.2 |
| 20260504151101 | 64 | 92 | 20.0 | 50.0 | 0.00 | 0.00 | 0.00 | 92 | 809.0 |
| 20260504150601 | 64 | 92 | 20.0 | 50.0 | 0.00 | 0.00 | 0.00 | 92 | 809.0 |
| 20260504141101 | 64 | 92 | 20.0 | 50.0 | 0.00 | 0.00 | 0.00 | 92 | 809.1 |
| 20260504140601 | 64 | 92 | 20.0 | 50.0 | 0.00 | 0.00 | 0.00 | 92 | 809.1 |
| 20260504130601 | 64 | 235 | 1.0 | 2.0 | 0.00 | 0.00 | 0.00 | 92 | 808.8 |
| 20260504130106 | 64 | 235 | 1.0 | 2.0 | 0.00 | 0.00 | 0.00 | 91 | 808.7 |
| 20260504120108 | 64 | 92 | 20.0 | 50.0 | 0.00 | 0.00 | 0.00 | 92 | 808.1 |
| 20260504110602 | 64 | 93 | 1.0 | 2.0 | 0.00 | 0.00 | 0.00 | 91 | 807.7 |
| 20260504110112 | 64 | 93 | 1.0 | 2.0 | 0.00 | 0.00 | 0.00 | 91 | 807.7 |
| 20260504100602 | 65 | 92 | 2.0 | 2.0 | 0.00 | 0.00 | 0.00 | 91 | 807.4 |
| 20260504100114 | 65 | 92 | 2.0 | 2.0 | 0.00 | 0.00 | 0.00 | 91 | 807.4 |
| 20260504090113 | 65 | 129 | 1.0 | 2.0 | 0.00 | 0.00 | 0.00 | 92 | 807.3 |
| 20260504081604 | 65 | 149 | 0.0 | 2.0 | 0.00 | 0.00 | 0.00 | 93 | 806.6 |
| 20260504081105 | 64 | 149 | 0.0 | 2.0 | 0.00 | 0.00 | 0.00 | 93 | 806.5 |
| 20260504080603 | 64 | 149 | 0.0 | 2.0 | 0.00 | 0.00 | 0.00 | 93 | 806.6 |
| 20260504080113 | 64 | 149 | 0.0 | 2.0 | 0.00 | 0.00 | 0.00 | 93 | 806.7 |
| 20260504070109 | 68 | 66 | 0.0 | 2.0 | 0.00 | 0.00 | 0.00 | 91 | 806.7 |
| 20260504060119 | 72 | 63 | 1.0 | 2.0 | 0.00 | 0.00 | 0.00 | 84 | 807.2 |
| 20260504050600 | 72 | 44 | 1.0 | 2.0 | 0.00 | 0.00 | 0.00 | 84 | 807.9 |
| 20260504050104 | 72 | 44 | 1.0 | 2.0 | 0.00 | 0.00 | 0.00 | 86 | 808.0 |
| 20260504045600 | 71 | 44 | 1.0 | 2.0 | 0.10 | 0.00 | 0.00 | 88 | 808.0 |
| 20260504045101 | 69 | 44 | 1.0 | 2.0 | 0.10 | 0.00 | 0.00 | 89 | 808.1 |
| 20260504044600 | 69 | 44 | 1.0 | 2.0 | 0.10 | 0.00 | 0.00 | 90 | 808.3 |
| 20260504044102 | 68 | 44 | 1.0 | 2.0 | 0.10 | 0.00 | 0.00 | 86 | 808.4 |
| 20260504043601 | 69 | 44 | 1.0 | 2.0 | 0.10 | 0.00 | 0.00 | 84 | 808.4 |
| 20260504043101 | 71 | 44 | 1.0 | 2.0 | 0.10 | 0.00 | 0.00 | 83 | 808.4 |
| 20260504042600 | 71 | 48 | 1.0 | 2.0 | 0.00 | 0.00 | 0.00 | 84 | 808.5 |
| 20260504042101 | 73 | 48 | 1.0 | 2.0 | 0.00 | 0.00 | 0.00 | 82 | 808.5 |
| 20260504041600 | 74 | 48 | 1.0 | 2.0 | 0.00 | 0.00 | 0.00 | 82 | 808.6 |
| 20260504041102 | 78 | 48 | 1.0 | 2.0 | 0.00 | 0.00 | 0.00 | 72 | 808.7 |
| 20260504040600 | 83 | 48 | 1.0 | 2.0 | 0.00 | 0.00 | 0.00 | 73 | 808.7 |
| 20260504040105 | 85 | 48 | 1.0 | 2.0 | 0.00 | 0.00 | 0.00 | 71 | 808.7 |
| 20260504035601 | 81 | 48 | 1.0 | 2.0 | 0.00 | 0.00 | 0.00 | 75 | 808.8 |
| 20260504035101 | 80 | 48 | 1.0 | 2.0 | 0.00 | 0.00 | 0.00 | 77 | 808.8 |
| 20260504034604 | 78 | 48 | 1.0 | 2.0 | 0.00 | 0.00 | 0.00 | 82 | 808.8 |
| 20260504034101 | 76 | 48 | 1.0 | 2.0 | 0.00 | 0.00 | 0.00 | 80 | 808.8 |
| 20260504033601 | 71 | 48 | 1.0 | 2.0 | 0.00 | 0.00 | 0.00 | 90 | 808.9 |
| 20260504033106 | 69 | 99 | 1.0 | 3.0 | 0.00 | 0.00 | 0.00 | 88 | 808.9 |
| 20260504032601 | 70 | 99 | 1.0 | 3.0 | 0.00 | 0.00 | 0.00 | 85 | 808.9 |
| 20260504032102 | 70 | 99 | 1.0 | 3.0 | 0.00 | 0.00 | 0.00 | 85 | 808.9 |
| 20260504031601 | 71 | 99 | 1.0 | 3.0 | 0.00 | 0.00 | 0.00 | 83 | 809.0 |
| 20260504031101 | 72 | 99 | 1.0 | 3.0 | 0.00 | 0.00 | 0.00 | 81 | 809.1 |
| 20260504030601 | 74 | 99 | 1.0 | 3.0 | 0.00 | 0.00 | 0.00 | 81 | 809.1 |
| 20260504030105 | 74 | 99 | 1.0 | 3.0 | 0.03 | 0.00 | 0.00 | 80 | 809.1 |
| 20260504025601 | 74 | 99 | 1.0 | 3.0 | 0.03 | 0.00 | 0.00 | 80 | 809.1 |
| 20260504025101 | 74 | 99 | 1.0 | 3.0 | 0.03 | 0.00 | 0.00 | 85 | 809.1 |
| 20260504024601 | 73 | 99 | 1.0 | 3.0 | 0.03 | 0.00 | 0.00 | 80 | 809.2 |
| 20260504024102 | 71 | 99 | 1.0 | 3.0 | 0.03 | 0.00 | 0.00 | 83 | 809.2 |
| 20260504023602 | 71 | 99 | 1.0 | 3.0 | 0.03 | 0.00 | 0.00 | 84 | 809.2 |
| 20260504023104 | 72 | 99 | 1.0 | 3.0 | 0.03 | 0.00 | 0.00 | 83 | 809.2 |
| 20260504022603 | 72 | 119 | 1.0 | 2.0 | 0.00 | 0.00 | 0.00 | 84 | 809.2 |
| 20260504022102 | 72 | 119 | 1.0 | 2.0 | 0.00 | 0.00 | 0.00 | 87 | 809.1 |
| 20260504021601 | 70 | 119 | 1.0 | 2.0 | 0.00 | 0.00 | 0.00 | 82 | 809.1 |
| 20260504021102 | 70 | 119 | 1.0 | 2.0 | 0.00 | 0.00 | 0.00 | 86 | 809.1 |
| 20260504020601 | 70 | 119 | 1.0 | 2.0 | 0.00 | 0.00 | 0.00 | 84 | 809.1 |
| 20260504020109 | 71 | 119 | 1.0 | 2.0 | 0.00 | 0.00 | 0.00 | 84 | 809.0 |
| 20260504015600 | 71 | 119 | 1.0 | 2.0 | 0.00 | 0.00 | 0.00 | 83 | 809.0 |
| 20260504015101 | 72 | 119 | 1.0 | 2.0 | 0.00 | 0.00 | 0.00 | 82 | 809.0 |
| 20260504014602 | 72 | 119 | 1.0 | 2.0 | 0.00 | 0.00 | 0.00 | 83 | 809.1 |
| 20260504014105 | 72 | 119 | 1.0 | 2.0 | 0.00 | 0.00 | 0.00 | 83 | 809.0 |
| 20260504013601 | 69 | 119 | 1.0 | 2.0 | 0.03 | 0.00 | 0.00 | 87 | 808.8 |
| 20260504013109 | 69 | 119 | 1.0 | 2.0 | 0.03 | 0.00 | 0.00 | 82 | 808.8 |
| 20260504012602 | 69 | 109 | 0.0 | 1.0 | 0.00 | 0.00 | 0.00 | 83 | 808.8 |
| 20260504012103 | 69 | 109 | 0.0 | 1.0 | 0.00 | 0.00 | 0.00 | 84 | 808.7 |
| 20260504011606 | 69 | 109 | 0.0 | 1.0 | 0.00 | 0.00 | 0.00 | 84 | 808.7 |
| 20260504011106 | 70 | 109 | 0.0 | 1.0 | 0.00 | 0.00 | 0.00 | 84 | 808.7 |
| 20260504010602 | 72 | 109 | 0.0 | 1.0 | 0.00 | 0.00 | 0.00 | 79 | 808.6 |
| 20260504010106 | 73 | 109 | 0.0 | 1.0 | 0.00 | 0.00 | 0.00 | 77 | 808.7 |
| 20260504005602 | 74 | 109 | 0.0 | 1.0 | 0.00 | 0.00 | 0.00 | 82 | 808.6 |
| 20260504005104 | 73 | 109 | 0.0 | 1.0 | 0.01 | 0.00 | 0.00 | 82 | 808.7 |
| 20260504004604 | 71 | 109 | 0.0 | 1.0 | 0.00 | 0.00 | 0.00 | 84 | 808.7 |
| 20260504004105 | 70 | 109 | 0.0 | 1.0 | 0.00 | 0.00 | 0.00 | 82 | 808.6 |
| 20260504003602 | 70 | 109 | 0.0 | 1.0 | 0.00 | 0.00 | 0.00 | 83 | 808.5 |
| 20260504003110 | 70 | 109 | 0.0 | 1.0 | 0.00 | 0.00 | 0.00 | 83 | 808.5 |
| 20260504002602 | 71 | 166 | 1.0 | 2.0 | 0.00 | 0.00 | 0.00 | 82 | 808.5 |
| 20260504002104 | 70 | 166 | 1.0 | 2.0 | 0.00 | 0.00 | 0.00 | 86 | 808.5 |
| 20260504001602 | 68 | 166 | 1.0 | 2.0 | 0.00 | 0.00 | 0.00 | 86 | 808.4 |
| 20260504001102 | 68 | 166 | 1.0 | 2.0 | 0.00 | 0.00 | 0.00 | 87 | 808.3 |
| 20260504000601 | 67 | 166 | 1.0 | 2.0 | 0.00 | 0.00 | 0.00 | 87 | 808.3 |
| 20260504000110 | 66 | 166 | 1.0 | 2.0 | 0.00 | 0.00 | 0.00 | 85 | 808.2 |
| 20260503235601 | 66 | 166 | 1.0 | 2.0 | 0.00 | 0.00 | 0.00 | 89 | 808.2 |
| 20260503235102 | 64 | 124 | 1.0 | 2.0 | 0.00 | 0.00 | 0.00 | 87 | 808.1 |
| 20260503234603 | 65 | 124 | 1.0 | 2.0 | 0.00 | 0.00 | 0.00 | 87 | 808.1 |
| 20260503234102 | 65 | 124 | 1.0 | 2.0 | 0.00 | 0.00 | 0.00 | 89 | 808.0 |
| 20260503233600 | 65 | 157 | 2.0 | 2.0 | 0.00 | 0.00 | 0.00 | 89 | 808.0 |
| 20260503233106 | 64 | 124 | 1.0 | 2.0 | 0.00 | 0.00 | 0.00 | 90 | 807.9 |
| 20260503232602 | 64 | 157 | 2.0 | 2.0 | 0.00 | 0.00 | 0.00 | 90 | 807.9 |
| 20260503232103 | 64 | 157 | 2.0 | 2.0 | 0.00 | 0.00 | 0.00 | 90 | 807.9 |
| 20260503231601 | 63 | 157 | 2.0 | 2.0 | 0.00 | 0.00 | 0.00 | 91 | 807.8 |
| 20260503231103 | 63 | 157 | 2.0 | 2.0 | 0.00 | 0.00 | 0.00 | 91 | 807.7 |
| 20260503230600 | 63 | 157 | 2.0 | 2.0 | 0.00 | 0.00 | 0.00 | 91 | 807.7 |
| 20260503230104 | 63 | 157 | 2.0 | 2.0 | 0.00 | 0.00 | 0.00 | 91 | 807.8 |
| 20260503225600 | 63 | 157 | 2.0 | 2.0 | 0.00 | 0.00 | 0.00 | 92 | 807.7 |
| 20260503225102 | 63 | 157 | 2.0 | 2.0 | 0.00 | 0.00 | 0.00 | 92 | 807.7 |
| 20260503224602 | 63 | 157 | 2.0 | 2.0 | 0.00 | 0.00 | 0.00 | 92 | 807.7 |
| 20260503224103 | 63 | 157 | 2.0 | 2.0 | 0.00 | 0.00 | 0.00 | 92 | 807.7 |
| 20260503223602 | 63 | 157 | 2.0 | 2.0 | 0.00 | 0.00 | 0.00 | 92 | 807.7 |
| 20260503223103 | 63 | 157 | 2.0 | 2.0 | 0.00 | 0.00 | 0.00 | 92 | 807.6 |
| 20260503222601 | 63 | 168 | 2.0 | 2.0 | 0.00 | 0.00 | 0.00 | 92 | 807.6 |
| 20260503222102 | 62 | 168 | 2.0 | 2.0 | 0.00 | 0.00 | 0.00 | 92 | 807.6 |
| 20260503221601 | 62 | 168 | 2.0 | 2.0 | 0.00 | 0.00 | 0.00 | 92 | 807.6 |
| 20260503221102 | 62 | 168 | 2.0 | 2.0 | 0.00 | 0.00 | 0.00 | 92 | 807.5 |
| 20260503220602 | 62 | 168 | 2.0 | 2.0 | 0.00 | 0.00 | 0.00 | 92 | 807.4 |
| 20260503220110 | 62 | 168 | 2.0 | 2.0 | 0.00 | 0.00 | 0.00 | 92 | 807.4 |
| 20260503215600 | 63 | 168 | 2.0 | 2.0 | 0.00 | 0.00 | 0.00 | 92 | 807.3 |
| 20260503215102 | 63 | 168 | 2.0 | 2.0 | 0.00 | 0.00 | 0.00 | 92 | 807.3 |
| 20260503214601 | 63 | 168 | 2.0 | 2.0 | 0.00 | 0.00 | 0.00 | 91 | 807.3 |
| 20260503214102 | 63 | 168 | 2.0 | 2.0 | 0.00 | 0.00 | 0.00 | 92 | 807.4 |